Regional Weather Roundup
Issued by NWS Jackson, KY

Home | Current Version | Previous Version | Graphics & Text | Print | Product List | Glossary On
Versions: 1 2 3 4 5 6 7 8 9 10 11 12 13 14 15 16 17 18 19 20 21 22 23 24 25 26 27 28 29 30 31 32 33 34 35 36 37 38 39 40 41 42 43 44 45 46 47 48 49 50
000
ASUS43 KJKL 162210
RWRJKL

EAST KENTUCKY HOURLY WEATHER ROUNDUP
NATIONAL WEATHER SERVICE JACKSON KY
600 PM EDT WED APR 16 2014

NOTE: "FAIR" INDICATES FEW OR NO CLOUDS BELOW 12,000 FEET WITH
NO SIGNIFICANT WEATHER AND/OR OBSTRUCTIONS TO VISIBILITY.

* THESE REPORTS ARE NOT UNDER NWS QUALITY CONTROL AND MAY NOT
  REPORT WEATHER SUCH AS PRECIPITATION AND FOG.

KYZ079-080-083-085-087-088-110-112-115-119-120-162300
...EASTERN KENTUCKY...

CITY           SKY/WX    TMP DP  RH WIND       PRES   REMARKS
JACKSON        SUNNY     53  18  25 VRB3      30.26F
LONDON         SUNNY     57  20  23 NE8       30.23F
SOMERSET*      SUNNY     57  19  23 E6        30.23F
MONTICELLO*    SUNNY     58  24  27 SE7       30.22F
MIDDLESBORO*   SUNNY     59  22  24 E3        30.23F
HARLAN APT*    CLEAR     59  12  15 SE7       30.22S
BLACK MTN*       N/A     46  19  34 E6          N/A
PIKEVILLE APT* SUNNY     52  19  28 E3        30.27F
BIG SANDY*     CLEAR     54  21  28 SE8       30.28F
MOREHEAD APT*  CLEAR     52  18  25 MISG      30.29F
$$

KYZ035-036-041-042-044-050-067-078-099-162300
...CENTRAL KENTUCKY...

CITY           SKY/WX    TMP DP  RH WIND       PRES   REMARKS
MT STERLING*   SUNNY     52  23  32 E10       30.27F
FLEMING/MASON* SUNNY     50  21  32 E8G16     30.29F
DANVILLE*      SUNNY     52  27  37 E8        30.25F
LEXINGTON      SUNNY     54  21  27 E13       30.25F
FRANKFORT      SUNNY     52  24  33 E14       30.25F
$$

KYZ091>093-OHZ055-061-077-WVZ005-015-034-035-042-162300
...SOUTHERN OHIO/WEST VIRGINIA...

CITY           SKY/WX    TMP DP  RH WIND       PRES   REMARKS
COVINGTON      MOSUNNY   50  21  32 SE9       30.27F
COLUMBUS       MOSUNNY   49  21  33 E9        30.34F
DAYTON         PTSUNNY   48  22  35 E18       30.30F
WILMINGTON     MOSUNNY   48  19  31 E10       30.30F
HUNTINGTON     SUNNY     52  20  28 NE8       30.30F
CHARLESTON     MOSUNNY   52  19  27 NE7       30.31F
PINEVILLE*     SUNNY     58  24  27 MISG      30.32S
BECKLEY        SUNNY     49  18  29 SE9       30.29S
BLUEFIELD      SUNNY     52  15  23 E9        30.28S
$$

VAZ002-007-008-TNZ017-027-036-066-071-162300
...SOUTHWEST VIRGINIA/EAST TENNESSEE...

CITY           SKY/WX    TMP DP  RH WIND       PRES   REMARKS
WISE*          SUNNY     55  18  22 E6        30.25F
ABINGDON*      SUNNY     59  18  20 E9        30.24S
BRISTOL        MOSUNNY   61  22  22 N3        30.23S
KNOXVILLE      MOSUNNY   58  28  32 NE7       30.21F
OAK RIDGE      SUNNY     60  22  23 CALM      30.22F
CROSSVILLE     SUNNY     57  21  24 S6        30.20F
NASHVILLE      PTSUNNY   62  25  24 VRB5      30.18F
$$

...KEY TO REMARKS...
VSB - VISIBILITY IN MILES
WCI - WIND CHILL INDEX
HX  - HEAT INDEX

$$



USA.gov is the U.S. government's official web portal to all federal, state and local government web resources and services.